Terminal Aerodrome Forecast
Issued by NWS Glasgow, MT

Home | Current Version | Previous Version | Text Only | Print | Product List | Glossary On
Versions: 1 2 3 4 5 6 7 8 9 10 11 12 13 14
587
FTUS45 KGGW 310905 AAB
TAFGGW
TAF AMD
KGGW 310905Z 3109/0106 28013KT 6SM -RA OVC009
     FM311800 34016G24KT P6SM VCSH BKN035
     FM010000 33014KT P6SM SCT050
     FM010300 33007KT P6SM SCT090=

USA.gov is the U.S. government's official web portal to all federal, state and local government web resources and services.